Temperature
11 10 10 11 12 13 14 14 14 14 14 14 13 13 14 15 15 15 15 16 15 15 14 13 13 12 12 11 11 10 10 10 10 10 9 9 9 9 9 9 9 9 9 9
10 10 12 13 13 13 13 13 13 13 14 13 13 13 14 14 14 15 15 15 15 15 14 13 12 12 11 11 10 10 10 10 10 9 9 9 9 9 9 9 9 8 8 8
10 11 13 13 13 12 13 12 13 13 12 13 12 12 13 14 15 15 15 15 15 14 14 13 12 11 11 10 10 10 10 10 9 9 9 8 8 8 8 8 8 8 8 8
11 12 12 12 12 12 11 13 13 12 11 10 11 10 13 14 14 14 14 15 14 14 14 13 12 11 11 10 10 10 9 9 9 9 8 8 8 8 8 8 8 8 8 7
10 10 11 11 11 12 11 12 12 12 11 10 11 10 11 13 13 13 13 14 14 14 13 13 12 11 10 10 10 9 9 9 9 8 8 8 8 8 8 7 7 7 7 7
9 10 10 11 11 12 11 11 11 11 10 8 10 10 11 12 13 13 13 14 14 13 13 12 12 11 10 10 9 9 8 8 8 8 8 8 8 7 7 7 7 7 7 7
8 9 10 10 9 10 10 9 8 8 8 8 11 11 11 13 13 13 13 13 13 13 12 12 11 11 10 9 9 9 8 8 8 8 8 8 8 7 7 7 7 7 7 6
7 7 9 9 9 8 9 9 8 8 9 10 11 10 12 13 13 14 14 13 13 12 11 11 11 10 10 9 9 8 8 8 8 8 8 7 7 7 7 7 7 7 6 6
7 7 9 9 10 9 9 8 10 9 9 9 10 12 12 12 12 12 12 12 12 11 11 11 10 10 9 9 8 8 8 8 8 7 7 7 7 7 7 7 7 6 6 6
7 6 7 8 9 8 9 9 8 8 8 9 11 11 10 10 10 11 10 11 11 11 10 10 10 9 9 8 8 8 8 7 7 7 7 7 7 7 6 6 6 6 6 6
7 5 6 6 7 7 7 7 7 7 8 9 10 10 11 10 10 10 10 11 10 10 10 9 9 9 8 8 8 7 7 7 7 7 7 7 6 6 6 6 6 6 6 5
6 5 4 6 7 7 8 7 7 6 7 8 8 9 11 10 10 10 10 10 10 9 9 9 8 8 8 8 7 7 7 7 7 7 6 6 6 6 6 6 5 5 5 5
5 4 4 4 5 5 5 6 6 6 6 7 8 9 10 10 10 10 10 10 9 9 8 8 8 8 7 7 7 7 7 6 6 6 6 6 6 6 5 5 5 5 5 5
6 4 4 4 5 4 4 5 6 5 5 6 8 8 9 9 8 9 9 9 9 8 8 7 7 7 7 7 7 6 6 6 6 6 6 6 5 5 5 5 5 5 5 4
4 3 4 5 5 5 5 5 5 5 6 6 8 8 9 8 8 8 8 8 8 7 7 7 6 6 6 6 6 6 6 6 6 5 5 5 5 5 5 5 4 4 4 4
3 3 3 4 5 5 5 5 5 6 6 7 7 7 8 8 8 8 8 7 7 6 6 6 6 6 6 6 5 5 5 5 5 5 5 5 5 4 4 4 4 4 4 4
2 2 3 3 4 4 4 5 5 6 6 7 7 7 7 7 7 7 7 6 6 6 5 5 5 5 5 5 5 5 5 5 5 5 4 4 4 4 4 4 4 4 4 3
2 2 2 3 3 3 5 6 6 6 6 6 6 6 6 6 6 6 6 6 5 5 5 5 5 5 5 5 5 5 4 4 4 4 4 4 4 4 4 4 4 3 3 3
3 2 2 2 3 4 5 5 5 4 4 5 5 5 5 6 5 5 5 5 4 4 4 4 4 4 4 4 4 4 4 4 4 4 3 3 3 3 3 3 3 3 3 3
2 2 2 2 3 4 4 4 5 4 4 4 5 4 4 4 3 3 4 4 4 4 4 4 4 4 4 4 4 4 3 3 3 3 3 3 3 3 3 3 2 2 2 2
1 1 2 2 3 3 4 4 4 3 3 4 4 4 3 3 3 3 3 3 3 3 3 3 3 3 3 3 3 3 3 3 3 2 3 3 3 2 2 2 2 2 2 1
2 1 2 2 2 3 3 3 2 3 3 4 3 3 3 2 2 2 2 2 2 2 2 2 2 2 2 2 2 2 2 2 2 2 2 2 2 2 2 2 1 1 1 1
2 2 2 2 2 3 3 3 3 3 3 3 2 2 2 2 1 1 1 1 1 1 1 1 1 1 1 1 2 2 1 1 2 2 2 2 1 1 1 1 1 1 0 0
1 2 2 1 2 2 2 2 2 2 2 2 2 2 2 1 1 0 0 0 0 1 1 1 1 1 1 0 1 1 1 1 1 1 1 1 1 1 0 0 0 -0 -0 -0
1 1 1 1 1 2 2 1 1 1 1 1 1 1 1 0 -0 -0 -0 -0 -0 -0 -0 -0 -0 -0 -0 -0 0 0 0 1 1 1 0 0 0 -0 -0 -0 -1 -1 -1 -1
0 -0 0 0 1 1 1 1 1 0 0 0 0 -0 -0 -0 -1 -1 -1 -1 -1 -1 -1 -1 -1 -1 -1 -1 -0 -0 -0 0 0 -0 -0 -1 -1 -1 -1 -1 -1 -1 -1 -1
Wind_Speed
8 8 10 13 14 10 7 8 8 4 3 6 9 10 8 7 8 8 8 8 9 9 9 9 9 9 8 8 8 7 6 5 4 3 2 2 1 1 1 1 1 1 0 0
7 12 13 11 12 11 10 9 7 1 2 4 6 10 9 9 10 9 9 9 9 8 9 10 9 9 8 8 8 8 7 6 5 3 3 2 2 1 1 1 1 1 1 1
11 6 9 11 10 10 11 9 7 4 2 4 5 8 11 10 10 10 9 7 8 9 10 10 10 9 8 8 8 8 7 6 5 4 3 2 1 1 1 2 2 2 2 2
8 6 7 9 9 9 8 6 6 4 3 4 6 6 6 7 10 11 10 8 8 7 8 10 10 10 9 8 8 8 7 6 5 5 4 4 3 2 3 2 2 3 2 2
5 4 6 8 9 8 3 1 3 4 5 5 6 5 6 7 8 9 9 8 7 7 8 9 10 10 9 8 8 7 7 6 5 5 5 4 3 2 2 2 3 3 3 3
3 2 3 4 4 4 2 1 1 3 3 6 9 8 6 5 9 8 8 7 7 6 6 7 8 9 8 8 7 7 7 6 6 6 5 5 4 3 3 2 3 3 2 3
3 4 2 1 2 3 4 4 2 3 4 7 7 7 6 4 5 7 7 7 6 6 6 7 8 9 9 9 8 7 7 6 6 6 5 5 4 4 4 3 3 3 3 3
3 4 5 4 4 4 6 6 5 5 5 4 5 7 3 3 3 5 5 5 5 5 5 6 7 8 9 9 8 7 7 6 6 6 5 4 4 3 3 3 3 3 3 3
2 2 2 3 2 3 5 6 3 2 2 2 5 3 3 3 4 5 5 5 5 4 4 4 6 6 8 8 8 8 7 6 6 6 5 4 4 4 3 3 3 3 3 3
1 1 2 1 1 3 3 3 2 3 4 4 5 5 4 6 4 4 4 5 4 3 4 4 5 5 6 7 6 6 5 5 5 5 4 4 4 3 3 3 3 3 3 3
2 1 1 2 5 6 4 3 3 3 4 3 3 2 1 5 6 5 4 4 5 4 3 3 4 4 5 5 5 5 4 4 4 4 4 3 3 2 2 2 3 3 3 3
1 1 2 4 2 4 4 5 5 4 4 4 2 2 3 5 5 5 4 5 5 5 3 3 4 4 4 4 4 4 4 3 3 3 3 3 2 2 2 2 3 2 3 3
1 1 1 1 1 1 2 3 4 2 2 3 3 3 1 5 5 4 5 5 5 5 5 3 3 3 3 3 3 3 3 3 3 2 2 2 2 2 3 3 2 2 3 3
2 2 4 6 4 3 4 6 5 4 4 4 5 4 2 1 2 3 3 4 4 4 4 3 2 2 2 2 2 2 2 2 2 2 2 2 2 2 2 2 2 3 3 3
0 2 3 5 4 4 5 8 9 9 8 6 6 5 5 1 1 1 2 3 4 3 3 3 2 1 1 2 1 1 1 1 1 1 1 1 1 1 2 2 3 3 3 4
0 2 2 5 5 5 7 9 11 12 12 11 9 8 3 1 1 1 2 2 2 2 2 2 1 1 1 1 1 1 0 0 1 1 1 1 1 1 2 2 2 3 3 3
2 2 2 4 3 3 7 9 11 10 10 10 10 7 1 0 1 0 1 1 1 1 1 1 1 1 1 1 1 1 1 1 1 1 1 1 0 1 2 2 2 3 3 3
3 2 2 2 2 6 4 0 3 5 5 4 3 1 1 1 2 1 3 3 2 2 1 1 1 1 2 1 1 1 2 2 1 1 1 1 1 1 2 2 3 3 3 3
5 3 2 2 4 5 2 1 1 3 4 2 3 1 2 3 2 2 4 4 3 3 2 1 1 1 2 2 2 2 2 2 1 1 1 1 1 2 2 2 3 3 3 3
2 2 2 2 3 4 1 1 1 1 2 1 0 1 1 2 0 1 3 4 4 4 3 3 2 2 2 2 2 2 1 2 2 2 2 2 2 2 2 3 3 3 3 3
2 2 4 3 3 2 2 3 3 2 3 1 1 1 1 0 1 0 2 3 3 3 3 3 3 3 2 2 2 2 2 2 2 2 2 3 2 2 2 2 3 3 3 3
4 3 3 2 3 3 2 2 2 1 2 3 2 2 1 2 2 2 2 3 3 3 4 4 3 3 3 3 3 2 2 2 2 2 2 3 3 3 2 3 3 3 3 3
3 2 2 3 2 1 1 1 1 2 2 3 2 1 2 2 2 3 3 3 3 4 4 4 4 4 4 4 3 3 2 3 2 2 2 2 3 3 3 2 3 3 3 3
2 1 1 1 1 0 1 3 4 4 4 3 2 2 2 2 2 3 3 3 4 4 4 4 4 4 4 4 4 3 3 3 3 3 2 2 3 3 3 3 3 2 3 3
1 1 1 2 1 2 2 3 3 4 4 4 4 3 3 3 3 2 2 3 3 3 4 3 3 3 3 4 4 4 4 3 3 3 3 3 2 2 3 3 3 3 2 2
1 1 1 2 1 1 2 2 3 3 3 3 4 4 4 3 3 3 2 3 3 3 3 3 4 4 4 4 4 4 4 4 3 3 3 3 3 3 3 3 4 5 4 6
Wind_Direction
193 205 210 208 214 233 249 243 242 232 180 196 224 242 239 216 212 219 213 204 194 188 178 168 161 154 149 148 148 151 151 154 146 148 154 153 166 175 163 156 153 179 206 322
201 223 223 221 224 240 253 257 259 254 168 207 245 253 246 225 216 212 212 205 194 185 174 164 157 154 156 155 154 156 160 160 155 162 167 169 172 188 193 202 206 218 227 244
215 221 216 220 217 227 239 239 244 241 253 237 266 267 235 227 218 212 211 207 195 187 177 166 163 161 160 160 161 165 163 161 160 160 152 151 140 180 238 227 219 222 223 229
232 234 222 220 220 219 237 241 243 234 233 243 210 264 240 211 207 206 205 203 199 192 175 169 168 166 166 165 161 161 161 161 162 156 158 169 188 211 226 222 229 236 226 232
225 212 215 221 223 221 229 252 239 238 240 270 231 242 256 203 210 200 194 196 194 186 176 173 171 167 163 158 159 161 160 162 163 164 171 181 198 219 226 224 235 243 239 229
253 260 228 224 229 209 171 142 201 250 243 254 225 219 255 210 209 198 187 184 181 175 172 171 165 157 157 154 157 163 163 166 169 172 180 186 196 210 219 233 237 246 248 241
224 216 193 164 166 178 187 153 159 193 217 239 200 207 239 217 188 183 180 178 171 166 168 169 165 163 161 160 163 169 167 172 175 179 188 193 199 202 212 223 232 246 257 257
185 205 188 184 185 185 206 196 187 195 210 225 198 216 226 160 128 135 138 141 140 141 155 165 165 163 162 164 168 173 176 179 179 183 195 199 202 204 211 219 230 241 246 250
196 226 185 218 219 181 190 220 259 280 274 258 226 214 164 124 112 115 117 114 124 131 139 152 156 159 160 166 175 179 180 181 183 188 194 200 204 209 216 219 227 241 249 258
352 255 230 274 265 258 245 209 172 189 204 234 226 214 199 171 165 143 138 134 132 122 129 138 148 156 159 165 169 171 180 184 186 189 197 210 211 212 214 217 228 242 249 253
347 142 180 217 215 210 198 205 218 215 239 224 232 230 73 149 152 146 130 124 126 123 123 134 137 140 143 147 158 172 181 184 187 190 197 204 205 196 194 214 229 235 248 254
259 169 216 243 286 299 232 205 185 197 237 237 253 249 36 90 107 106 105 100 103 103 97 102 111 122 132 146 161 170 179 187 192 190 198 200 192 186 207 233 233 236 254 260
222 162 168 241 282 301 272 246 222 223 247 243 233 223 73 59 55 74 95 96 97 97 89 82 97 121 137 152 163 168 177 186 188 182 195 195 194 198 225 238 239 244 256 266
299 214 217 223 246 224 236 238 227 211 219 241 237 235 257 14 47 46 65 86 98 102 102 96 84 78 99 116 135 149 165 161 166 168 180 198 223 225 235 243 249 248 249 257
336 236 255 274 274 251 249 235 226 225 228 229 244 256 258 221 149 99 78 79 80 78 91 94 90 75 72 79 86 102 115 118 134 142 173 221 246 250 257 253 251 258 261 262
229 233 277 275 264 248 250 238 231 236 238 242 254 268 278 57 81 88 88 76 72 62 62 70 72 68 70 95 102 76 51 81 117 142 190 210 238 258 262 268 268 265 268 268
197 197 227 258 252 278 253 230 223 227 226 226 238 245 209 357 295 160 115 102 71 42 38 73 51 19 22 58 97 85 43 52 72 89 79 40 347 292 296 296 291 277 270 269
181 212 231 224 197 230 238 251 194 215 228 223 232 244 167 172 306 56 74 72 56 29 28 40 38 16 11 37 77 86 74 62 59 56 41 23 6 335 330 328 309 292 285 280
199 189 218 202 220 250 265 321 193 205 241 226 216 212 57 58 52 77 57 47 39 25 23 31 41 35 23 39 75 82 79 74 64 43 26 15 5 343 332 320 312 306 300 299
200 207 207 213 232 234 240 352 350 131 239 307 174 173 104 64 164 243 18 28 29 21 22 23 31 38 33 40 72 82 72 60 49 31 14 13 9 350 325 314 313 316 311 298
194 213 213 226 239 252 13 16 73 146 243 2 41 85 114 238 237 265 16 28 34 21 23 28 34 33 23 36 66 79 61 45 34 25 21 20 14 355 338 338 335 333 330 323
193 189 201 205 229 244 26 72 139 246 351 27 36 27 35 45 54 50 50 44 40 34 29 34 42 32 23 33 56 56 36 26 39 37 24 17 8 358 359 356 343 342 338 333
201 196 200 202 218 5 73 75 28 22 6 3 356 11 68 74 60 46 47 43 44 37 31 37 46 38 28 28 45 47 18 20 33 39 25 12 8 6 5 4 353 348 346 337
243 234 222 251 230 75 41 37 23 14 5 11 36 46 67 94 74 57 41 40 38 38 37 44 44 37 26 27 34 35 22 23 34 35 20 10 10 7 10 9 360 351 345 341
257 223 232 247 296 26 42 22 14 9 20 32 36 43 69 93 90 72 48 42 42 36 28 39 42 32 22 25 32 24 20 28 32 23 12 6 9 12 7 6 4 351 338 328
5 350 258 249 307 309 312 3 24 30 26 36 44 45 50 67 77 67 56 46 47 36 33 36 35 29 19 23 25 16 13 23 26 16 9 6 7 7 5 360 355 358 350 346
Height
1442 1445 1444 1442 1442 1440 1439 1440 1440 1439 1439 1442 1445 1443 1441 1441 1442 1443 1444 1446 1449 1451 1455 1458 1461 1463 1465 1467 1468 1470 1472 1474 1476 1477 1478 1480 1481 1482 1483 1483 1483 1484 1484 1483
1440 1440 1437 1437 1437 1438 1438 1441 1440 1440 1439 1442 1444 1442 1438 1436 1437 1438 1440 1442 1444 1448 1451 1453 1456 1459 1461 1463 1465 1467 1469 1471 1473 1474 1476 1477 1478 1479 1480 1480 1481 1481 1481 1481
1434 1433 1432 1433 1435 1438 1438 1441 1440 1442 1442 1442 1445 1443 1435 1431 1432 1434 1436 1438 1440 1443 1446 1449 1452 1454 1457 1459 1461 1463 1466 1468 1470 1472 1473 1475 1476 1476 1477 1477 1478 1478 1478 1478
1431 1430 1431 1432 1434 1436 1440 1436 1437 1440 1447 1449 1446 1451 1431 1426 1427 1428 1430 1433 1436 1439 1442 1444 1447 1450 1453 1456 1459 1461 1463 1465 1467 1469 1470 1471 1472 1472 1473 1474 1475 1475 1475 1475
1430 1430 1431 1432 1432 1433 1436 1436 1438 1441 1445 1448 1444 1449 1434 1423 1425 1424 1426 1428 1431 1435 1438 1440 1443 1446 1450 1453 1456 1458 1460 1462 1464 1465 1467 1468 1469 1470 1471 1471 1471 1471 1471 1471
1430 1429 1430 1430 1431 1433 1436 1439 1441 1443 1447 1454 1442 1444 1433 1424 1420 1420 1422 1424 1427 1431 1434 1437 1440 1443 1447 1450 1453 1455 1457 1458 1460 1462 1464 1465 1466 1466 1467 1467 1467 1468 1468 1467
1430 1430 1430 1431 1434 1435 1437 1445 1453 1454 1456 1448 1431 1435 1428 1416 1413 1415 1418 1421 1424 1427 1430 1433 1436 1439 1442 1445 1449 1451 1453 1455 1457 1459 1460 1461 1462 1463 1463 1463 1464 1464 1464 1463
1432 1433 1430 1430 1433 1436 1437 1439 1446 1449 1446 1437 1428 1430 1420 1411 1411 1412 1416 1419 1422 1425 1428 1431 1433 1436 1439 1442 1445 1448 1450 1452 1454 1455 1457 1458 1459 1459 1459 1460 1460 1460 1460 1460
1431 1432 1429 1429 1430 1433 1435 1437 1434 1439 1437 1439 1429 1419 1415 1412 1412 1414 1416 1418 1421 1424 1427 1429 1431 1434 1436 1439 1442 1444 1447 1449 1451 1452 1453 1454 1455 1456 1456 1456 1456 1456 1456 1456
1430 1436 1432 1431 1431 1431 1432 1432 1438 1441 1440 1435 1422 1419 1420 1417 1416 1416 1417 1418 1421 1424 1426 1428 1430 1432 1434 1437 1440 1442 1445 1446 1448 1449 1450 1451 1451 1452 1452 1452 1452 1452 1452 1451
1431 1438 1437 1435 1434 1433 1434 1436 1435 1436 1433 1433 1428 1424 1411 1412 1413 1415 1417 1418 1420 1423 1425 1427 1429 1431 1433 1435 1437 1440 1442 1444 1445 1446 1447 1447 1448 1448 1448 1448 1448 1448 1448 1447
1430 1436 1440 1436 1433 1431 1430 1431 1436 1440 1436 1430 1430 1429 1412 1412 1412 1415 1417 1419 1421 1423 1425 1427 1428 1430 1431 1433 1435 1437 1439 1440 1441 1442 1443 1444 1444 1444 1444 1444 1444 1444 1444 1443
1431 1437 1441 1439 1439 1436 1435 1433 1433 1436 1436 1432 1431 1428 1414 1414 1415 1416 1418 1420 1422 1424 1425 1426 1428 1429 1430 1431 1433 1434 1436 1437 1438 1439 1440 1440 1440 1440 1440 1440 1440 1440 1440 1439
1430 1435 1436 1435 1431 1434 1436 1434 1433 1436 1437 1432 1425 1423 1419 1418 1418 1419 1420 1421 1422 1423 1425 1426 1427 1428 1429 1430 1431 1432 1433 1434 1435 1436 1436 1437 1437 1437 1437 1437 1436 1436 1436 1435
1430 1434 1432 1429 1426 1428 1429 1430 1430 1432 1430 1430 1422 1420 1418 1418 1419 1420 1421 1422 1422 1423 1424 1425 1426 1427 1428 1428 1429 1430 1431 1431 1432 1433 1433 1433 1434 1434 1433 1433 1433 1432 1432 1431
1431 1434 1431 1429 1425 1425 1426 1425 1425 1425 1424 1422 1420 1420 1417 1417 1418 1420 1421 1421 1422 1423 1423 1424 1425 1426 1426 1427 1427 1428 1428 1429 1430 1430 1430 1430 1430 1430 1430 1429 1429 1428 1427 1427
1431 1433 1432 1430 1425 1424 1427 1419 1418 1418 1416 1417 1418 1417 1416 1418 1418 1419 1420 1421 1422 1422 1422 1422 1423 1424 1425 1425 1425 1426 1426 1427 1427 1427 1427 1427 1427 1427 1426 1426 1425 1424 1423 1422
1429 1430 1431 1430 1429 1433 1417 1410 1411 1413 1413 1414 1414 1415 1416 1417 1418 1419 1419 1420 1421 1421 1421 1421 1422 1422 1423 1423 1424 1424 1424 1425 1425 1425 1425 1425 1424 1424 1423 1423 1422 1421 1420 1418
1424 1428 1429 1429 1426 1418 1414 1412 1412 1414 1414 1413 1414 1415 1416 1416 1416 1418 1419 1419 1420 1420 1420 1420 1420 1420 1421 1421 1422 1422 1422 1422 1422 1422 1422 1422 1422 1421 1420 1419 1419 1417 1416 1415
1423 1425 1428 1426 1424 1418 1415 1411 1409 1413 1416 1413 1412 1414 1415 1416 1420 1419 1418 1418 1418 1418 1418 1418 1418 1418 1419 1419 1419 1420 1420 1420 1420 1420 1420 1420 1420 1419 1418 1417 1416 1414 1413 1411
1426 1426 1426 1424 1422 1416 1414 1411 1411 1419 1418 1412 1412 1413 1414 1415 1417 1417 1416 1416 1416 1417 1417 1416 1416 1416 1417 1417 1417 1418 1418 1418 1418 1418 1418 1418 1417 1416 1416 1415 1413 1412 1410 1409
1421 1423 1423 1422 1421 1420 1415 1414 1416 1416 1413 1412 1412 1412 1413 1414 1414 1414 1415 1415 1415 1415 1415 1414 1414 1414 1415 1415 1415 1415 1416 1416 1417 1416 1416 1415 1415 1414 1413 1412 1411 1410 1408 1406
1417 1418 1418 1418 1419 1415 1413 1414 1414 1413 1412 1411 1411 1411 1412 1412 1413 1413 1414 1414 1414 1414 1413 1413 1413 1413 1413 1414 1414 1414 1414 1414 1415 1414 1414 1413 1413 1412 1411 1410 1408 1407 1406 1404
1416 1414 1415 1416 1414 1414 1414 1413 1413 1412 1412 1411 1410 1410 1410 1410 1411 1412 1413 1413 1413 1413 1413 1412 1412 1412 1412 1412 1412 1412 1413 1413 1412 1412 1412 1411 1410 1410 1409 1408 1406 1405 1403 1401
1415 1415 1415 1415 1414 1413 1413 1413 1413 1412 1411 1411 1410 1410 1410 1410 1411 1412 1412 1412 1412 1412 1412 1412 1411 1411 1411 1411 1411 1411 1411 1411 1410 1410 1410 1409 1409 1408 1407 1406 1405 1403 1401 1400
1415 1416 1416 1415 1414 1414 1413 1413 1412 1411 1411 1411 1410 1410 1411 1411 1411 1411 1412 1412 1412 1412 1412 1411 1410 1410 1410 1410 1410 1410 1410 1409 1408 1408 1407 1407 1407 1406 1405 1403 1402 1401 1400 1398